Temperature
16 17 17 17 15 14 15 16 18 20 21 22 23 22 19 19 20 19 19 19 18 17 16 15 14 14 13 13 13 13 13 13 12 12 12 12 12 12 12 11 12 12 12 12 12 12 12 12 12
17 17 17 17 14 14 15 16 18 20 22 22 22 22 20 19 20 20 19 18 17 17 16 15 14 14 13 13 13 13 13 13 12 12 12 12 12 12 11 11 11 12 12 12 12 12 13 12 12
17 17 17 14 14 14 16 18 18 20 22 23 22 22 21 20 21 21 20 18 17 17 16 15 14 14 13 13 13 13 13 13 12 12 12 12 12 11 11 11 12 12 12 12 12 12 12 12 12
17 17 16 13 15 15 17 18 19 20 22 23 22 20 20 21 21 21 20 19 18 17 16 15 14 14 14 13 13 13 13 13 12 12 12 12 12 12 12 12 12 12 12 12 12 12 12 12 12
17 16 14 14 15 16 17 19 20 20 21 22 21 19 19 20 21 21 21 19 19 18 16 15 15 14 14 13 13 13 13 13 12 12 12 12 12 12 12 12 12 12 12 12 12 12 12 12 12
16 14 13 13 15 17 18 20 20 20 21 22 21 19 19 20 21 21 21 20 19 18 17 16 15 14 14 13 13 13 13 12 12 12 12 12 12 12 12 12 12 12 12 12 12 12 12 12 11
15 13 13 15 16 17 19 21 20 19 20 21 22 18 18 20 20 20 20 20 19 18 17 16 15 14 14 13 13 13 13 12 12 12 12 12 12 12 12 12 12 12 12 12 12 11 11 11 11
17 13 15 15 16 17 19 21 22 22 21 22 22 18 18 19 19 19 19 19 18 18 17 16 16 15 14 13 13 13 12 12 12 12 12 12 12 12 12 12 12 12 12 11 11 11 11 11 10
17 13 13 15 17 18 20 20 22 23 22 21 21 22 22 20 18 18 17 17 17 17 17 16 16 15 15 14 13 13 12 12 12 12 12 12 12 12 12 12 12 11 11 11 11 11 10 10 10
16 13 14 16 17 18 19 20 21 21 20 20 21 21 21 19 18 18 18 18 18 18 17 17 16 16 15 14 13 13 12 12 12 12 12 12 12 11 11 11 11 11 11 10 10 10 10 10 9
14 14 15 17 18 19 19 20 21 20 19 20 21 21 20 19 18 18 19 20 20 19 18 17 16 16 15 14 14 13 12 12 12 12 12 11 11 11 11 11 10 10 10 10 10 10 9 9 9
14 15 16 18 19 19 19 20 20 20 21 22 22 22 20 19 19 19 19 20 19 19 18 18 17 16 15 15 14 13 13 12 12 12 11 11 11 11 10 10 10 10 10 10 9 9 9 9 9
14 15 17 18 18 19 19 19 19 20 21 21 21 21 20 20 20 20 20 20 19 19 18 18 17 16 16 15 14 14 13 13 12 12 11 11 11 11 10 10 10 10 10 9 9 9 9 9 8
15 16 17 17 18 18 18 18 18 20 21 20 20 20 20 20 20 19 19 18 18 19 19 18 17 17 16 15 15 14 13 13 12 12 11 11 11 10 10 10 10 9 9 9 9 9 9 8 8
16 15 15 16 17 17 17 16 16 20 20 20 20 20 20 20 20 20 20 19 19 19 18 18 17 16 16 15 15 14 14 13 12 12 11 11 11 10 10 10 10 9 9 9 9 8 8 8 8
15 14 14 15 16 17 16 15 16 20 20 19 20 19 19 19 20 20 20 20 20 19 18 18 17 16 16 15 14 14 13 13 12 12 11 11 10 10 10 10 9 9 9 9 9 8 8 8 8
13 12 13 15 16 15 15 14 16 19 19 19 20 20 20 20 20 20 20 20 20 19 19 18 17 16 16 15 14 14 13 12 12 11 11 10 10 10 10 9 9 9 9 9 9 8 8 8 8
12 12 13 14 16 15 14 14 15 18 18 18 19 20 20 20 20 21 20 20 20 19 19 18 17 16 16 14 13 13 12 12 12 11 11 10 10 10 9 9 9 9 9 9 9 8 8 8 8
13 13 14 14 16 15 14 15 16 16 16 16 17 19 20 20 21 21 21 20 20 19 19 18 17 16 15 14 13 12 12 12 11 11 11 10 10 10 9 9 9 9 9 9 9 8 8 8 8
13 13 13 14 15 15 14 14 15 15 15 17 17 18 20 20 21 21 21 21 20 20 19 19 18 17 16 15 15 14 13 12 12 11 11 10 10 10 10 9 9 9 9 9 9 8 8 8 8
13 12 13 13 15 15 15 14 14 14 16 17 18 19 19 20 20 21 21 21 20 20 20 19 19 18 17 16 14 13 12 11 11 11 10 10 10 10 10 9 9 9 9 9 9 9 8 8 8
13 14 14 14 14 13 14 12 13 14 14 15 16 18 19 20 20 20 21 21 20 20 20 20 19 18 17 16 14 13 12 12 12 11 11 10 10 10 10 9 9 9 9 9 9 9 8 8 8
13 14 14 14 13 12 12 12 12 13 14 15 15 17 19 20 20 20 20 20 20 20 20 20 19 18 17 16 15 14 13 13 12 11 11 10 10 10 10 9 9 9 9 9 9 9 8 8 8
14 14 13 12 12 11 12 11 11 12 14 15 16 17 19 20 20 20 20 20 20 20 19 19 19 18 17 16 15 14 14 13 12 11 11 10 10 10 10 9 9 9 9 9 9 9 9 8 8
13 12 11 10 10 10 11 11 12 13 14 15 16 17 19 20 20 20 20 20 20 19 19 19 18 18 17 16 15 15 14 13 13 12 11 11 10 10 10 10 10 9 9 9 9 9 9 8 8
13 12 11 11 10 10 11 11 12 13 15 16 17 18 19 19 20 20 20 20 20 19 19 18 18 17 17 16 15 14 14 13 12 12 11 11 11 11 10 10 10 10 9 9 9 9 9 8 8
12 13 12 11 10 10 10 11 12 13 14 14 15 17 17 19 19 19 19 19 19 19 19 18 18 17 17 16 15 14 13 13 12 12 11 11 11 11 10 10 10 9 9 9 9 9 9 8 8
13 12 12 11 10 10 10 10 12 14 14 14 14 15 17 18 19 19 19 19 19 18 18 17 17 17 16 16 15 14 13 12 12 11 11 11 10 10 10 10 10 9 9 9 9 9 8 8 8
12 12 12 11 10 10 10 11 13 14 14 14 14 16 17 18 19 19 19 19 18 18 17 17 16 16 15 15 14 14 13 12 11 11 11 11 10 10 10 10 10 9 9 9 9 9 8 8 8
11 11 11 11 9 9 9 11 14 13 14 14 14 17 18 18 19 19 18 18 18 17 17 16 16 15 15 15 14 13 12 11 11 11 10 10 10 10 10 10 10 9 9 9 9 9 8 8 8
Wind_Speed
2 2 3 4 5 3 5 7 5 3 2 3 5 10 10 7 4 5 5 12 15 16 20 23 23 21 20 20 19 18 17 17 16 16 16 16 15 15 15 15 15 15 15 16 16 16 15 15 14
1 2 4 5 5 3 7 7 7 8 6 5 6 8 8 4 3 9 8 13 19 19 20 21 23 22 21 21 20 19 18 17 16 16 15 15 15 15 15 14 15 15 15 15 15 14 14 14 14
1 2 4 4 4 7 7 6 8 6 6 4 5 6 8 9 8 11 10 18 17 17 19 22 24 23 22 21 21 20 19 17 17 16 15 15 15 14 14 14 14 14 14 14 13 13 13 13 13
3 4 4 3 7 8 7 5 3 4 2 2 7 7 4 5 10 10 17 19 18 13 19 22 24 23 22 22 21 20 19 18 17 16 16 15 15 14 14 14 13 13 13 13 12 12 12 12 11
4 4 2 3 7 7 7 7 6 5 6 5 7 8 3 3 6 15 21 21 19 14 18 22 24 23 23 22 21 20 19 18 17 16 16 15 14 14 14 13 13 13 12 12 12 11 11 10 10
3 4 3 5 8 7 6 7 5 6 5 5 8 8 2 2 13 18 19 19 18 17 18 21 24 24 23 22 22 21 20 19 18 17 16 15 15 14 14 13 12 12 11 11 11 10 9 9 9
5 4 5 6 6 7 8 6 7 8 7 7 10 9 3 5 10 14 15 16 16 16 16 17 21 22 23 23 23 21 21 19 18 18 17 16 15 14 13 13 12 11 10 10 9 9 8 7 7
6 4 4 5 6 7 6 4 6 9 7 5 8 12 9 10 10 11 11 12 14 13 12 13 17 19 20 21 23 22 21 20 19 18 17 16 15 14 13 12 11 10 9 8 8 7 6 5 5
5 3 5 6 6 6 4 3 3 5 7 5 4 8 9 16 15 14 11 10 12 14 13 12 13 16 18 19 21 22 22 21 20 18 18 16 14 13 12 12 11 10 9 8 7 5 4 3 2
5 6 8 6 4 3 4 2 3 4 5 3 4 4 11 18 20 21 19 19 19 19 17 14 13 14 17 18 18 18 18 19 18 18 18 16 15 14 12 12 11 10 8 7 5 4 2 1 1
8 9 7 7 6 5 5 4 2 6 5 7 8 10 16 17 19 21 22 22 22 21 19 17 15 16 16 13 15 14 15 17 18 19 18 16 15 13 12 11 10 8 7 5 4 2 1 1 2
7 8 8 7 6 4 5 4 2 4 6 7 12 18 19 20 22 22 21 19 16 18 20 18 17 15 15 14 14 14 13 14 14 17 19 16 11 10 10 9 9 8 7 5 4 3 3 3 3
9 8 8 9 8 7 6 6 5 6 6 3 9 15 19 21 21 20 18 16 15 19 20 20 18 17 15 13 12 14 13 15 16 17 18 17 12 9 10 9 10 9 8 7 5 4 3 3 2
9 10 12 10 10 7 8 8 5 9 5 4 11 15 17 20 20 15 13 14 17 20 20 20 20 19 17 14 12 12 15 16 17 17 18 19 16 12 10 8 8 8 9 8 7 5 3 2 1
8 7 9 10 9 7 6 10 10 11 6 6 9 14 16 17 16 17 18 19 20 21 21 22 22 20 19 16 14 14 16 17 15 17 19 19 17 15 12 8 7 9 10 9 6 4 2 1 1
5 7 10 9 9 8 9 13 12 10 9 11 10 11 13 16 16 18 19 18 18 18 20 22 21 21 20 17 15 13 16 16 15 17 19 19 19 18 13 8 7 11 10 7 4 2 2 1 1
5 7 9 8 8 8 10 11 11 9 9 12 12 11 13 14 16 18 18 19 19 20 21 22 21 23 22 18 15 13 14 14 16 17 17 19 19 19 14 9 9 11 8 5 3 2 2 2 1
9 8 7 10 6 10 11 12 12 8 10 13 12 12 12 14 18 16 19 18 18 19 21 22 22 22 20 16 12 10 11 11 14 15 17 19 18 18 15 11 10 11 5 4 3 3 2 2 1
9 8 9 8 7 7 12 15 16 12 10 12 13 13 13 15 15 13 15 16 16 17 19 22 22 21 19 17 16 15 15 13 12 12 17 20 19 19 15 9 9 8 6 6 6 4 3 1 1
10 11 10 7 6 7 10 15 14 13 12 13 14 15 15 14 13 12 12 13 16 19 21 23 23 23 23 19 17 14 12 10 10 9 14 19 19 19 16 11 8 8 6 6 6 4 3 2 2
16 15 14 8 4 4 4 9 11 10 10 11 12 13 12 15 16 14 12 13 15 18 21 22 24 23 23 18 13 9 7 6 7 11 12 13 18 19 16 14 10 8 8 7 7 6 6 4 2
21 16 12 10 7 6 5 8 10 9 10 12 13 13 14 15 15 13 13 13 16 19 19 21 23 22 22 20 18 19 15 13 12 12 10 11 16 17 17 16 13 10 7 8 7 7 5 6 3
10 10 12 11 10 9 7 7 9 7 12 13 14 16 16 15 15 15 14 15 15 16 17 19 20 21 20 21 22 21 15 12 8 9 12 12 11 14 16 16 13 10 8 8 8 7 6 5 5
8 6 5 5 5 13 16 11 9 9 13 10 13 15 15 14 14 14 12 11 12 12 14 15 18 20 21 22 22 22 19 15 13 13 14 12 9 10 12 14 12 11 9 9 8 8 8 6 6
11 9 6 7 9 12 10 10 11 11 12 15 15 15 15 13 12 11 11 11 11 13 14 15 18 19 20 22 22 22 21 20 19 16 16 13 10 9 13 11 11 10 10 10 9 8 8 8 7
19 17 12 9 9 5 7 12 10 11 13 13 14 13 12 11 10 11 11 12 12 14 15 16 18 17 20 21 21 19 19 16 15 15 14 15 12 12 12 12 11 11 11 11 9 7 7 7 7
16 17 11 6 4 4 7 7 8 7 10 11 12 11 12 11 11 10 10 10 11 13 14 16 18 16 18 20 19 18 18 17 15 14 13 13 10 10 12 12 12 11 11 11 10 7 8 8 7
15 13 8 9 9 8 7 7 7 8 13 12 12 12 12 10 9 9 9 9 9 10 11 12 14 16 15 17 17 16 17 17 15 14 15 14 13 12 13 13 13 12 11 10 10 8 8 8 7
11 14 9 9 7 8 6 8 9 12 13 13 14 13 12 11 10 9 9 8 8 7 9 10 11 12 13 15 15 15 15 15 15 15 16 15 14 14 15 14 14 13 12 11 10 9 9 9 7
8 11 11 12 9 8 6 9 7 11 12 12 12 11 9 10 8 8 8 7 7 8 9 10 11 12 13 13 13 14 14 14 15 15 15 15 15 15 15 14 14 13 13 12 12 12 11 11 10
Wind_Direction
280 45 79 61 65 69 235 240 225 233 181 193 127 111 116 116 143 157 138 142 142 152 162 160 159 155 149 144 139 135 131 128 124 119 115 112 111 109 106 103 100 96 94 91 89 88 87 87 87
77 88 65 68 108 190 251 237 223 220 194 161 115 104 99 95 118 126 133 153 148 153 158 159 158 154 149 145 142 138 135 131 128 124 120 117 114 113 111 107 103 100 97 94 93 91 91 90 89
74 102 96 98 161 198 232 228 214 219 206 161 99 88 131 150 153 159 161 150 146 152 156 160 158 155 151 149 145 142 139 136 133 130 126 123 121 118 116 112 108 104 101 98 96 94 93 93 91
76 62 69 119 228 229 223 234 194 170 200 122 113 94 124 165 169 164 146 146 146 150 155 162 160 158 154 152 149 146 144 142 139 136 132 128 125 122 119 116 114 111 107 104 101 98 96 95 92
70 90 123 244 243 249 238 240 219 194 174 148 117 119 131 345 145 141 146 149 151 153 157 164 163 161 158 155 153 151 149 147 143 141 137 134 131 128 125 122 120 116 112 109 106 102 99 97 94
75 88 148 232 248 261 256 230 196 191 181 150 123 125 141 102 140 150 152 152 154 156 160 166 167 164 161 160 157 155 153 151 148 145 142 140 137 134 131 128 126 122 117 112 108 104 100 98 95
135 139 204 223 247 264 253 218 184 180 177 180 142 128 142 161 160 151 150 149 152 157 160 165 168 167 166 164 161 160 158 156 154 151 147 146 144 142 139 135 131 126 122 117 112 107 101 98 93
158 146 229 228 227 250 248 211 194 168 187 158 132 144 179 190 156 136 135 143 152 159 162 164 165 167 167 166 165 164 162 161 158 155 152 151 151 148 145 142 140 136 132 128 122 114 107 98 89
135 144 221 222 213 244 270 219 214 167 128 101 131 176 184 148 140 137 139 147 160 167 170 167 165 166 166 166 168 167 166 164 161 158 155 154 150 148 147 151 151 147 144 140 133 129 120 100 57
154 197 221 222 214 254 308 281 212 134 116 97 70 67 127 145 154 159 165 170 173 177 178 174 170 167 165 169 170 169 166 165 161 160 158 156 153 154 158 164 163 159 158 156 155 156 144 93 319
182 206 223 251 259 282 301 306 279 145 168 180 173 157 150 160 166 173 178 180 181 178 178 179 175 171 170 169 168 167 164 163 164 164 162 161 160 163 168 169 171 170 172 175 181 175 176 234 254
207 229 215 234 250 263 264 273 287 192 198 185 178 163 162 171 179 183 185 187 180 178 183 179 178 175 175 171 171 169 167 169 171 173 170 166 164 168 173 176 179 182 186 192 206 217 234 240 251
231 246 240 240 246 236 243 247 238 245 240 173 155 161 174 182 189 193 190 183 178 183 185 182 180 180 178 173 175 176 175 176 177 178 177 173 170 174 178 183 186 192 195 197 205 216 223 240 257
222 233 251 254 250 238 232 246 226 243 235 163 162 179 190 193 195 193 189 186 188 189 188 184 184 183 180 181 180 180 180 180 179 182 182 179 178 178 179 182 185 193 197 200 199 198 202 214 207
224 238 259 250 238 234 222 255 236 235 236 228 200 196 201 207 203 200 198 196 195 193 189 187 187 184 183 184 182 181 182 182 183 185 185 184 184 182 180 178 184 193 193 188 182 181 163 146 106
209 223 243 250 219 216 188 245 248 238 226 239 232 216 212 215 212 211 207 204 200 194 190 189 188 187 186 185 183 183 184 184 186 187 188 188 187 185 179 177 186 188 182 175 164 151 129 110 83
216 211 221 248 220 197 193 235 248 233 214 234 240 232 224 223 222 219 215 209 204 198 193 190 188 188 188 186 183 182 182 185 187 187 189 191 189 185 180 179 184 180 172 170 164 142 144 151 174
202 200 207 218 225 195 212 235 246 238 214 228 237 239 233 230 229 220 216 213 208 201 195 191 190 188 186 183 179 180 183 187 187 188 191 190 190 185 181 180 181 173 163 166 162 151 139 148 170
190 196 216 225 223 205 226 238 245 238 228 233 238 239 238 236 237 226 217 211 204 199 195 192 190 187 183 185 185 187 191 190 189 190 190 190 189 185 181 178 176 172 173 177 168 151 146 144 121
212 220 228 250 233 218 238 247 247 239 227 226 230 233 235 238 241 231 219 207 199 197 195 193 191 188 187 190 190 190 184 185 187 186 190 190 188 186 185 178 178 174 172 172 170 155 146 146 131
217 219 222 227 270 262 256 271 256 253 237 237 234 231 232 230 232 228 218 209 200 198 195 194 192 190 190 186 178 165 155 158 178 190 193 191 189 187 185 183 178 177 175 179 179 168 158 162 160
224 216 212 220 229 251 217 264 261 246 250 242 241 238 237 235 231 226 219 211 204 202 197 194 192 190 189 182 180 180 186 190 192 188 188 186 187 186 185 183 181 179 178 178 180 173 163 153 161
212 194 207 217 222 245 238 244 263 237 242 243 239 237 237 235 228 225 220 213 207 200 195 194 190 190 187 185 186 187 191 190 175 173 179 185 187 186 185 184 182 181 180 179 176 169 166 161 161
187 162 200 222 216 240 231 224 261 221 221 232 236 237 236 234 228 225 221 212 206 196 192 190 188 190 188 188 188 190 189 180 173 178 185 188 188 188 187 184 183 182 180 180 179 174 171 171 164
183 173 194 206 217 237 210 215 246 224 217 219 229 234 232 229 222 220 213 205 200 193 190 189 188 190 189 189 191 192 191 185 185 185 188 186 187 191 192 185 184 182 182 180 173 171 176 174 170
195 188 194 197 205 233 189 220 243 228 224 224 228 228 227 225 220 216 212 206 200 195 190 187 190 190 189 190 193 192 189 190 192 189 188 191 194 193 187 185 184 181 179 176 172 172 177 175 175
189 202 192 176 187 203 226 251 282 232 230 230 228 226 225 223 218 215 211 205 199 193 191 189 189 189 190 191 190 190 190 190 190 187 186 190 188 185 182 183 182 180 178 174 170 177 178 174 179
190 177 171 189 194 220 242 234 230 213 216 222 223 223 225 221 216 214 208 203 198 194 190 188 189 190 188 189 190 191 192 191 188 185 189 189 186 181 179 182 182 180 179 175 174 174 174 174 179
180 184 179 179 191 190 225 246 217 205 209 213 221 223 218 215 213 210 207 200 190 181 179 184 187 186 186 188 188 187 189 188 187 189 191 189 185 183 183 184 182 182 181 178 178 179 176 180 183
186 183 177 193 203 193 204 253 231 209 213 208 216 221 214 209 207 202 194 182 181 183 184 186 187 187 187 185 184 186 185 185 189 191 189 186 185 185 185 183 183 184 183 181 182 183 183 185 189
Height
1512 1513 1514 1517 1520 1528 1528 1517 1507 1503 1501 1499 1498 1499 1503 1508 1512 1518 1517 1517 1519 1522 1525 1528 1531 1533 1536 1537 1539 1540 1541 1542 1543 1544 1545 1545 1546 1546 1546 1547 1547 1547 1547 1547 1547 1547 1547 1547 1547
1511 1513 1515 1516 1524 1533 1525 1510 1504 1499 1498 1498 1498 1500 1502 1506 1508 1511 1513 1516 1519 1522 1524 1528 1531 1533 1535 1537 1538 1540 1541 1542 1543 1544 1545 1545 1546 1546 1547 1547 1547 1547 1548 1548 1548 1548 1548 1548 1548
1511 1512 1515 1517 1524 1525 1516 1502 1499 1495 1496 1496 1498 1500 1502 1505 1507 1510 1512 1515 1518 1521 1524 1527 1530 1533 1535 1537 1538 1540 1541 1542 1543 1544 1545 1545 1546 1546 1547 1547 1547 1548 1548 1548 1548 1548 1548 1549 1549
1511 1513 1514 1519 1519 1511 1503 1497 1495 1495 1495 1495 1496 1501 1504 1506 1507 1510 1512 1515 1518 1521 1524 1527 1529 1532 1534 1536 1538 1539 1541 1542 1543 1544 1544 1545 1546 1546 1547 1547 1548 1548 1548 1549 1549 1549 1549 1549 1550
1510 1511 1516 1519 1514 1503 1497 1494 1494 1494 1493 1494 1495 1500 1503 1506 1508 1510 1511 1514 1517 1520 1523 1526 1529 1531 1534 1536 1537 1539 1540 1542 1543 1543 1544 1545 1546 1546 1547 1548 1548 1548 1549 1549 1549 1550 1550 1550 1551
1509 1510 1520 1520 1510 1499 1494 1492 1492 1492 1492 1493 1494 1499 1502 1505 1507 1509 1511 1514 1517 1519 1522 1525 1528 1531 1533 1535 1537 1538 1540 1541 1542 1543 1544 1545 1546 1546 1547 1548 1548 1549 1549 1550 1550 1551 1551 1551 1551
1508 1511 1514 1511 1506 1499 1492 1489 1489 1489 1489 1491 1492 1497 1501 1504 1507 1509 1511 1514 1517 1519 1522 1524 1527 1530 1532 1534 1536 1538 1539 1540 1542 1543 1544 1545 1546 1547 1547 1548 1549 1549 1550 1550 1551 1551 1552 1552 1552
1504 1507 1508 1506 1503 1497 1487 1486 1485 1485 1487 1489 1491 1494 1498 1501 1505 1509 1512 1514 1516 1519 1521 1523 1526 1528 1530 1533 1535 1537 1538 1540 1541 1542 1543 1544 1546 1546 1547 1548 1549 1549 1550 1551 1551 1552 1552 1552 1552
1501 1508 1508 1501 1497 1491 1485 1484 1483 1483 1485 1487 1489 1490 1492 1498 1502 1507 1510 1513 1515 1517 1519 1522 1524 1526 1529 1531 1533 1535 1537 1539 1540 1541 1543 1544 1545 1546 1547 1548 1549 1550 1550 1551 1551 1552 1552 1552 1553
1497 1504 1498 1490 1488 1486 1484 1483 1482 1482 1483 1485 1487 1489 1491 1495 1498 1502 1505 1507 1510 1513 1516 1519 1521 1524 1526 1529 1531 1533 1535 1537 1539 1540 1542 1543 1544 1546 1547 1548 1549 1549 1550 1551 1551 1552 1552 1552 1552
1491 1492 1489 1486 1485 1485 1483 1482 1481 1480 1483 1483 1484 1486 1489 1493 1496 1498 1500 1503 1505 1509 1512 1515 1518 1521 1524 1526 1528 1531 1533 1535 1537 1539 1540 1542 1543 1545 1546 1547 1548 1549 1550 1550 1551 1551 1552 1552 1552
1487 1484 1484 1483 1483 1484 1483 1481 1481 1480 1480 1481 1483 1484 1487 1489 1492 1494 1497 1500 1503 1506 1509 1512 1515 1518 1521 1523 1525 1528 1530 1532 1534 1536 1538 1540 1541 1543 1545 1546 1547 1548 1549 1550 1550 1551 1551 1552 1552
1483 1480 1479 1480 1481 1481 1481 1480 1479 1478 1479 1480 1481 1483 1485 1486 1488 1491 1494 1497 1500 1503 1505 1508 1511 1514 1517 1520 1522 1525 1527 1529 1532 1534 1536 1538 1540 1542 1543 1545 1546 1547 1548 1549 1549 1550 1551 1551 1551
1477 1477 1477 1477 1477 1478 1478 1477 1477 1474 1476 1477 1479 1480 1482 1484 1486 1488 1491 1493 1496 1499 1502 1504 1507 1510 1513 1516 1519 1521 1524 1527 1530 1532 1534 1536 1538 1540 1542 1543 1545 1546 1547 1548 1549 1549 1550 1550 1550
1474 1476 1475 1473 1473 1473 1476 1476 1472 1471 1473 1473 1475 1477 1479 1481 1482 1484 1486 1488 1491 1493 1497 1500 1503 1506 1509 1512 1515 1518 1521 1524 1526 1529 1532 1534 1536 1538 1540 1542 1543 1545 1546 1547 1548 1548 1549 1549 1549
1472 1476 1478 1470 1468 1469 1476 1476 1466 1466 1468 1468 1470 1472 1474 1476 1478 1479 1482 1484 1486 1489 1491 1494 1498 1501 1504 1507 1511 1514 1517 1520 1523 1526 1529 1531 1533 1536 1538 1539 1541 1543 1544 1545 1546 1547 1548 1548 1548
1473 1477 1475 1470 1463 1464 1470 1470 1461 1461 1463 1463 1464 1466 1468 1470 1472 1474 1476 1479 1481 1483 1486 1489 1492 1495 1498 1502 1506 1510 1514 1517 1519 1523 1525 1528 1531 1533 1535 1537 1539 1541 1542 1544 1545 1545 1546 1546 1547
1472 1473 1470 1468 1459 1461 1465 1463 1457 1456 1458 1458 1459 1460 1461 1462 1464 1467 1470 1473 1475 1478 1480 1483 1486 1489 1493 1498 1502 1506 1509 1512 1515 1518 1521 1525 1527 1530 1533 1535 1537 1539 1540 1541 1542 1543 1544 1545 1545
1460 1463 1464 1460 1455 1458 1460 1458 1453 1452 1453 1453 1453 1453 1454 1455 1457 1460 1463 1466 1468 1471 1473 1476 1479 1483 1487 1491 1495 1498 1502 1506 1510 1514 1517 1521 1524 1527 1529 1532 1534 1536 1537 1539 1540 1541 1542 1543 1543
1457 1460 1461 1457 1453 1455 1458 1454 1448 1446 1446 1445 1445 1446 1447 1448 1450 1453 1455 1458 1460 1463 1466 1469 1472 1476 1479 1483 1487 1491 1496 1500 1505 1509 1513 1517 1520 1523 1525 1528 1531 1533 1535 1536 1538 1539 1540 1540 1541
1451 1454 1456 1458 1453 1452 1455 1454 1447 1441 1439 1439 1438 1438 1439 1440 1442 1444 1447 1450 1452 1455 1458 1461 1464 1468 1472 1477 1482 1488 1493 1498 1501 1504 1507 1511 1515 1519 1522 1525 1527 1530 1531 1533 1534 1536 1537 1538 1538
1443 1442 1448 1453 1458 1460 1457 1462 1447 1439 1435 1433 1431 1431 1431 1433 1434 1436 1439 1442 1444 1447 1451 1454 1457 1461 1466 1471 1475 1479 1483 1486 1490 1495 1501 1506 1510 1514 1517 1521 1523 1526 1528 1530 1531 1533 1534 1535 1535
1434 1437 1444 1448 1454 1459 1456 1460 1445 1436 1433 1427 1424 1423 1423 1424 1426 1428 1430 1433 1436 1440 1443 1447 1451 1454 1459 1463 1467 1472 1476 1480 1486 1492 1497 1501 1505 1509 1513 1516 1519 1522 1524 1526 1528 1529 1531 1531 1532
1430 1438 1443 1448 1454 1459 1450 1456 1443 1432 1423 1419 1417 1415 1415 1417 1418 1420 1423 1426 1429 1432 1436 1439 1443 1447 1452 1456 1460 1465 1469 1474 1480 1485 1490 1495 1500 1504 1507 1511 1514 1517 1520 1522 1524 1526 1527 1528 1529
1427 1439 1452 1456 1456 1450 1440 1445 1430 1417 1411 1409 1409 1408 1408 1410 1412 1413 1416 1419 1421 1425 1428 1432 1436 1440 1445 1449 1454 1458 1463 1469 1473 1478 1483 1488 1493 1497 1501 1505 1509 1512 1515 1518 1520 1522 1523 1524 1525
1416 1425 1438 1444 1446 1444 1438 1434 1417 1406 1401 1401 1401 1402 1403 1404 1406 1408 1410 1413 1415 1418 1421 1425 1429 1433 1438 1442 1447 1452 1458 1463 1468 1473 1478 1482 1486 1491 1496 1500 1504 1508 1511 1514 1516 1518 1519 1520 1521
1410 1415 1418 1431 1436 1439 1434 1423 1410 1400 1399 1397 1397 1397 1398 1399 1401 1403 1405 1407 1410 1413 1415 1419 1422 1427 1431 1436 1441 1446 1452 1457 1462 1467 1473 1477 1482 1487 1491 1495 1499 1503 1506 1509 1511 1513 1515 1516 1517
1396 1405 1416 1425 1433 1435 1429 1422 1410 1397 1395 1393 1393 1393 1393 1395 1396 1398 1401 1403 1405 1408 1411 1414 1418 1421 1425 1431 1436 1441 1446 1451 1457 1462 1467 1472 1477 1482 1486 1490 1494 1498 1501 1504 1506 1508 1510 1512 1513
1394 1400 1404 1414 1420 1425 1427 1414 1389 1387 1386 1387 1387 1387 1388 1390 1392 1394 1397 1399 1402 1404 1407 1410 1413 1417 1421 1426 1431 1436 1441 1446 1452 1456 1461 1467 1472 1476 1480 1485 1489 1492 1495 1498 1501 1503 1505 1507 1508
1384 1389 1396 1406 1412 1414 1417 1403 1377 1378 1378 1379 1381 1382 1384 1387 1389 1391 1394 1396 1398 1401 1403 1406 1409 1413 1416 1421 1426 1431 1436 1441 1446 1451 1456 1461 1466 1471 1475 1480 1483 1487 1490 1493 1496 1498 1500 1502 1503